Precipitable_Water
0.24 0.25 0.26 0.26 0.27 0.28 0.30 0.33 0.35 0.36 0.37 0.38 0.38 0.39 0.38 0.38 0.42 0.43 0.45 0.44 0.41 0.40 0.42 0.42 0.43 0.45 0.47 0.51 0.51 0.50 0.50 0.50 0.41 0.46 0.52 0.56 0.57 0.59 0.62 0.66 0.69 0.72 0.75
0.24 0.25 0.25 0.26 0.27 0.28 0.29 0.32 0.34 0.34 0.36 0.37 0.38 0.38 0.39 0.38 0.39 0.43 0.45 0.44 0.40 0.39 0.40 0.41 0.42 0.46 0.49 0.53 0.50 0.47 0.47 0.50 0.48 0.41 0.45 0.49 0.52 0.58 0.60 0.61 0.64 0.65 0.65
0.24 0.24 0.25 0.26 0.27 0.28 0.29 0.31 0.32 0.32 0.33 0.35 0.37 0.37 0.39 0.39 0.38 0.45 0.49 0.45 0.42 0.40 0.40 0.42 0.42 0.44 0.47 0.52 0.50 0.47 0.47 0.47 0.49 0.48 0.46 0.45 0.49 0.56 0.56 0.58 0.59 0.61 0.61
0.24 0.24 0.25 0.26 0.28 0.29 0.30 0.30 0.31 0.31 0.31 0.33 0.35 0.36 0.38 0.40 0.41 0.46 0.50 0.51 0.46 0.41 0.41 0.42 0.42 0.44 0.45 0.52 0.50 0.48 0.47 0.43 0.45 0.46 0.45 0.44 0.44 0.46 0.50 0.49 0.49 0.53 0.53
0.24 0.24 0.25 0.28 0.29 0.30 0.30 0.30 0.30 0.30 0.31 0.32 0.32 0.34 0.37 0.40 0.40 0.42 0.46 0.48 0.47 0.42 0.42 0.41 0.42 0.44 0.48 0.53 0.50 0.50 0.46 0.44 0.43 0.38 0.37 0.39 0.40 0.39 0.37 0.39 0.40 0.46 0.47
0.26 0.24 0.26 0.27 0.28 0.29 0.30 0.29 0.29 0.29 0.30 0.31 0.31 0.33 0.36 0.39 0.40 0.41 0.44 0.45 0.47 0.42 0.39 0.38 0.41 0.41 0.46 0.49 0.52 0.52 0.51 0.46 0.43 0.41 0.39 0.34 0.33 0.35 0.37 0.36 0.35 0.30 0.29
0.27 0.26 0.26 0.27 0.27 0.30 0.31 0.27 0.27 0.28 0.29 0.30 0.32 0.34 0.36 0.38 0.40 0.41 0.43 0.45 0.47 0.41 0.38 0.36 0.39 0.41 0.45 0.49 0.48 0.53 0.50 0.50 0.50 0.46 0.42 0.42 0.41 0.40 0.38 0.35 0.35 0.33 0.31
0.28 0.27 0.28 0.27 0.28 0.30 0.31 0.28 0.27 0.28 0.29 0.31 0.33 0.35 0.36 0.38 0.39 0.40 0.42 0.44 0.45 0.40 0.37 0.35 0.37 0.40 0.45 0.48 0.43 0.44 0.47 0.48 0.49 0.48 0.47 0.46 0.46 0.46 0.44 0.41 0.38 0.34 0.35
0.29 0.29 0.29 0.30 0.29 0.31 0.32 0.31 0.30 0.29 0.30 0.32 0.34 0.35 0.36 0.37 0.38 0.39 0.41 0.41 0.41 0.39 0.37 0.33 0.35 0.38 0.46 0.46 0.39 0.39 0.42 0.45 0.50 0.49 0.49 0.48 0.48 0.47 0.45 0.43 0.38 0.35 0.32
0.29 0.31 0.31 0.31 0.31 0.31 0.33 0.33 0.33 0.33 0.32 0.33 0.33 0.36 0.38 0.37 0.39 0.39 0.40 0.40 0.37 0.36 0.36 0.32 0.33 0.37 0.42 0.43 0.39 0.36 0.35 0.38 0.44 0.45 0.47 0.46 0.46 0.45 0.45 0.44 0.41 0.35 0.34
0.30 0.33 0.34 0.33 0.32 0.33 0.34 0.35 0.35 0.34 0.34 0.34 0.35 0.37 0.39 0.40 0.40 0.40 0.40 0.39 0.36 0.34 0.32 0.32 0.32 0.34 0.35 0.39 0.39 0.36 0.33 0.36 0.37 0.40 0.40 0.42 0.44 0.44 0.44 0.44 0.43 0.40 0.36
0.30 0.32 0.35 0.36 0.35 0.35 0.35 0.36 0.36 0.36 0.35 0.35 0.35 0.36 0.40 0.42 0.43 0.41 0.39 0.39 0.38 0.33 0.30 0.31 0.30 0.31 0.31 0.36 0.38 0.34 0.31 0.33 0.33 0.34 0.35 0.37 0.37 0.38 0.41 0.42 0.44 0.43 0.43
0.29 0.30 0.34 0.36 0.37 0.38 0.37 0.36 0.37 0.38 0.37 0.36 0.35 0.35 0.38 0.42 0.43 0.42 0.39 0.39 0.37 0.33 0.32 0.32 0.29 0.30 0.30 0.32 0.36 0.36 0.31 0.28 0.29 0.29 0.28 0.30 0.32 0.35 0.37 0.39 0.40 0.40 0.40
0.29 0.28 0.31 0.33 0.35 0.37 0.39 0.38 0.37 0.37 0.37 0.37 0.36 0.36 0.38 0.41 0.41 0.41 0.38 0.37 0.35 0.34 0.33 0.31 0.29 0.29 0.30 0.30 0.34 0.37 0.36 0.29 0.27 0.27 0.29 0.31 0.32 0.32 0.32 0.34 0.33 0.35 0.35
0.30 0.29 0.29 0.31 0.33 0.35 0.37 0.38 0.39 0.40 0.40 0.37 0.37 0.37 0.38 0.38 0.40 0.40 0.37 0.35 0.33 0.30 0.29 0.28 0.27 0.27 0.26 0.28 0.31 0.36 0.36 0.34 0.27 0.27 0.28 0.29 0.29 0.30 0.30 0.32 0.33 0.32 0.31
0.26 0.28 0.29 0.30 0.32 0.33 0.34 0.37 0.41 0.41 0.42 0.41 0.40 0.39 0.40 0.41 0.40 0.40 0.38 0.35 0.32 0.29 0.26 0.25 0.25 0.25 0.25 0.26 0.28 0.33 0.40 0.36 0.33 0.29 0.27 0.27 0.27 0.28 0.27 0.29 0.30 0.29 0.28
0.23 0.24 0.27 0.29 0.31 0.32 0.33 0.34 0.34 0.41 0.43 0.40 0.39 0.39 0.40 0.38 0.39 0.38 0.36 0.33 0.30 0.27 0.24 0.24 0.24 0.25 0.26 0.27 0.27 0.29 0.33 0.40 0.38 0.34 0.29 0.28 0.27 0.28 0.28 0.27 0.27 0.28 0.27
0.24 0.24 0.24 0.27 0.29 0.31 0.33 0.34 0.36 0.36 0.36 0.38 0.41 0.38 0.39 0.39 0.37 0.38 0.36 0.32 0.29 0.27 0.25 0.24 0.24 0.25 0.26 0.26 0.27 0.28 0.31 0.37 0.40 0.37 0.34 0.30 0.28 0.28 0.27 0.27 0.27 0.26 0.26
0.25 0.25 0.25 0.26 0.28 0.31 0.32 0.34 0.35 0.36 0.37 0.38 0.40 0.39 0.39 0.38 0.37 0.39 0.36 0.31 0.26 0.25 0.25 0.25 0.26 0.26 0.26 0.26 0.28 0.29 0.30 0.33 0.37 0.38 0.36 0.33 0.30 0.28 0.27 0.27 0.26 0.26 0.26
0.29 0.27 0.27 0.26 0.27 0.29 0.31 0.32 0.34 0.36 0.37 0.38 0.38 0.37 0.39 0.38 0.36 0.37 0.37 0.32 0.28 0.27 0.26 0.25 0.26 0.27 0.27 0.27 0.28 0.29 0.30 0.32 0.35 0.39 0.37 0.35 0.33 0.30 0.28 0.26 0.26 0.25 0.24
0.32 0.31 0.28 0.28 0.28 0.28 0.30 0.31 0.33 0.36 0.37 0.38 0.39 0.40 0.40 0.37 0.37 0.37 0.36 0.32 0.28 0.27 0.26 0.26 0.26 0.27 0.28 0.28 0.28 0.29 0.29 0.31 0.35 0.39 0.39 0.37 0.35 0.31 0.30 0.29 0.27 0.26 0.25
0.35 0.33 0.31 0.29 0.29 0.28 0.29 0.31 0.33 0.35 0.36 0.37 0.39 0.40 0.40 0.39 0.39 0.38 0.35 0.31 0.30 0.30 0.29 0.28 0.27 0.28 0.28 0.28 0.28 0.28 0.29 0.30 0.35 0.38 0.37 0.38 0.35 0.32 0.31 0.31 0.30 0.27 0.26
0.36 0.35 0.34 0.32 0.31 0.30 0.31 0.32 0.33 0.34 0.35 0.37 0.38 0.39 0.39 0.41 0.39 0.37 0.35 0.33 0.31 0.31 0.31 0.29 0.28 0.28 0.29 0.30 0.31 0.31 0.31 0.34 0.37 0.37 0.36 0.34 0.32 0.31 0.31 0.31 0.30 0.29 0.28
0.38 0.36 0.36 0.35 0.34 0.33 0.32 0.32 0.33 0.34 0.35 0.36 0.36 0.37 0.39 0.42 0.41 0.37 0.35 0.34 0.33 0.32 0.32 0.30 0.29 0.28 0.29 0.30 0.31 0.32 0.35 0.38 0.38 0.38 0.34 0.30 0.29 0.29 0.29 0.29 0.29 0.30 0.30
0.41 0.38 0.37 0.36 0.36 0.34 0.33 0.33 0.33 0.34 0.34 0.35 0.34 0.36 0.40 0.43 0.40 0.36 0.35 0.36 0.34 0.33 0.32 0.31 0.31 0.30 0.29 0.30 0.30 0.31 0.34 0.34 0.34 0.35 0.32 0.30 0.28 0.28 0.28 0.29 0.29 0.29 0.30
0.43 0.40 0.39 0.39 0.38 0.37 0.35 0.33 0.33 0.34 0.33 0.33 0.34 0.37 0.40 0.39 0.39 0.38 0.36 0.36 0.35 0.34 0.33 0.32 0.31 0.30 0.30 0.30 0.31 0.32 0.33 0.34 0.34 0.33 0.30 0.28 0.27 0.28 0.28 0.28 0.28 0.28 0.28
Wind_Speed
11 12 13 14 16 17 19 20 22 23 24 26 27 28 29 30 30 32 32 31 32 31 30 28 26 24 21 19 16 14 12 11 10 8 7 6 6 8 11 16 20 20 21
11 12 13 15 16 18 19 20 22 23 24 25 27 28 29 30 30 31 32 32 32 32 30 28 26 23 21 20 18 15 12 11 9 9 7 7 6 6 9 13 16 20 22
12 13 14 15 16 18 19 21 22 23 24 25 26 28 29 30 31 31 33 33 33 32 31 28 25 23 21 20 19 17 13 11 9 8 8 6 6 7 8 11 13 17 20
12 13 14 15 17 18 20 21 22 23 24 25 26 27 28 30 31 31 33 34 34 33 31 28 24 21 19 19 19 18 15 12 9 8 7 6 5 6 8 10 12 14 17
13 14 15 16 17 18 20 21 22 23 24 25 26 27 28 29 30 32 34 35 35 35 32 28 22 19 17 17 18 17 16 13 11 9 7 7 6 7 7 8 10 12 13
13 14 15 16 17 18 20 21 22 23 24 24 25 27 28 29 31 32 34 35 35 35 33 28 22 17 15 15 16 16 15 15 14 11 8 7 6 6 7 7 8 8 10
14 15 15 16 17 18 19 21 22 23 23 24 25 26 27 29 30 32 34 34 35 35 33 28 21 15 13 13 13 15 15 14 14 13 11 9 7 6 6 6 6 7 9
14 15 16 16 17 18 19 20 21 22 23 24 24 26 27 28 30 31 33 34 34 34 32 27 21 14 11 12 12 13 14 14 14 14 13 11 9 7 5 4 4 6 7
15 15 15 16 17 17 19 20 21 22 23 23 24 25 26 27 29 30 32 33 33 33 31 26 20 13 11 11 11 11 12 14 13 13 14 13 12 10 8 3 2 3 4
14 14 15 15 16 17 18 19 21 22 22 23 23 24 25 26 28 29 30 31 32 32 30 26 19 13 11 11 10 10 11 11 11 12 13 13 13 12 11 9 8 5 3
14 14 15 15 16 17 18 19 20 21 22 22 23 24 24 25 26 28 28 30 30 31 29 25 19 14 11 10 10 9 10 11 10 10 11 11 11 11 10 9 8 7 6
15 15 15 15 16 17 18 19 20 21 22 22 22 23 23 24 25 26 27 28 29 29 28 25 20 16 11 9 10 10 10 9 9 9 10 10 10 10 9 9 8 7 7
16 16 16 16 16 17 17 18 19 20 21 21 22 22 22 23 24 24 25 26 26 27 26 25 21 17 13 9 10 10 10 9 9 9 9 9 10 9 9 8 9 9 9
18 18 17 17 17 17 18 18 19 19 20 20 21 21 21 22 22 23 24 24 25 25 25 25 22 17 13 11 9 10 10 10 10 10 9 9 9 9 9 9 10 10 10
19 19 18 18 18 18 18 18 18 19 19 20 20 20 20 20 21 22 23 23 23 23 24 22 21 19 15 12 10 10 10 10 10 10 10 10 10 10 10 10 10 11 11
20 20 19 18 18 18 18 18 18 19 19 19 20 20 20 19 20 20 21 21 22 21 21 21 20 19 17 14 12 11 12 12 11 10 10 10 10 10 11 11 11 11 12
21 20 20 19 19 18 18 18 18 18 18 18 18 18 18 18 18 19 19 20 20 20 18 19 19 18 17 15 14 13 13 13 13 12 11 10 11 11 11 11 11 12 12
22 21 20 19 19 19 18 18 17 17 17 17 16 17 17 16 16 17 18 18 17 17 17 18 18 18 17 16 15 14 14 14 15 14 13 11 11 11 11 11 11 12 12
22 21 21 20 19 19 18 18 17 17 17 16 15 16 15 15 15 15 16 16 16 16 16 16 17 17 16 16 16 15 15 15 15 16 15 13 12 11 11 11 11 12 13
23 22 21 20 19 19 18 18 17 17 16 16 16 15 14 14 14 14 14 14 14 15 15 15 15 16 16 16 16 16 16 15 16 16 17 16 14 12 11 11 11 11 12
24 23 22 21 20 19 19 18 17 17 16 15 15 14 13 13 13 13 13 13 13 13 13 14 14 15 15 16 16 16 17 17 17 17 18 17 17 15 12 11 11 11 11
26 24 24 22 21 20 19 19 18 17 16 15 14 13 13 13 13 12 12 12 11 11 12 12 13 13 14 15 16 16 17 17 18 18 18 19 18 17 15 12 10 10 10
29 27 25 24 22 21 20 19 19 18 17 15 14 13 13 13 12 11 11 10 10 10 10 11 11 12 13 14 15 16 16 17 18 19 19 20 19 19 17 14 10 9 9
31 29 27 25 23 22 21 20 20 19 17 16 15 14 13 12 11 10 10 9 9 9 9 10 10 11 12 13 14 15 16 17 18 19 20 20 20 19 19 16 13 9 8
33 31 28 26 25 24 23 22 20 19 18 17 16 15 14 13 11 10 9 9 9 9 9 9 9 10 11 12 13 14 15 17 17 18 19 19 19 19 19 17 16 12 9
35 33 30 28 26 25 24 23 22 21 19 18 17 16 14 13 11 10 9 9 9 9 9 9 9 10 10 11 12 13 14 16 16 17 18 18 18 18 18 18 17 15 13
Wind_Direction
319 326 330 334 337 339 341 342 343 344 345 346 347 348 349 349 349 350 350 349 350 351 351 351 351 353 351 349 342 343 328 330 324 320 304 294 272 245 229 225 226 228 226
315 320 326 330 334 336 338 340 342 343 344 345 346 348 349 349 349 349 350 349 350 350 350 350 351 353 354 354 352 342 336 333 322 319 313 293 281 260 239 230 229 231 228
311 316 322 327 331 334 337 339 341 342 344 345 346 347 348 349 350 350 350 350 350 350 349 349 350 352 354 355 356 353 341 336 325 317 310 309 283 265 251 242 239 236 237
307 312 317 323 328 332 335 337 339 341 342 344 346 347 348 349 350 350 351 349 350 350 350 349 349 352 354 357 359 1 358 351 343 326 323 310 297 286 262 255 251 247 245
303 308 313 319 325 329 332 334 337 339 341 343 345 346 348 349 351 350 350 351 351 351 351 351 350 352 355 1 4 5 9 6 357 347 328 306 301 290 279 269 257 252 248
300 305 311 316 321 326 329 333 335 337 339 342 344 345 347 349 350 351 351 351 352 353 353 354 353 354 359 2 5 9 10 11 9 1 351 338 318 296 288 275 264 255 244
296 302 307 312 318 323 327 331 334 336 338 340 342 344 346 348 349 350 352 352 353 355 356 356 357 359 3 3 5 9 12 13 12 12 6 357 347 326 305 278 264 257 253
293 299 305 310 315 320 325 329 332 335 337 339 341 343 345 347 349 350 352 354 355 357 358 359 1 4 6 7 7 9 15 16 17 19 17 14 8 355 329 289 273 273 265
291 297 303 308 313 318 323 328 331 334 336 337 339 341 343 346 348 350 353 355 356 359 1 2 4 11 9 7 8 7 10 14 19 22 24 26 27 27 27 20 339 306 290
288 296 302 308 312 316 321 326 330 333 335 336 338 340 342 344 348 350 353 356 357 360 2 5 6 8 8 8 7 7 9 10 15 20 25 30 33 36 40 43 40 30 7
286 293 300 306 311 316 321 325 329 332 334 335 336 339 341 344 347 350 353 356 359 1 2 6 7 4 358 2 5 6 6 7 11 14 17 22 24 28 31 32 31 29 24
282 289 295 302 309 315 319 323 327 330 333 335 336 339 342 344 347 350 353 356 358 1 3 6 8 5 359 355 357 358 2 6 10 10 12 15 16 18 19 20 17 12 2
277 283 290 297 304 311 316 321 325 328 332 334 336 338 341 344 347 350 353 355 358 2 5 6 6 7 5 356 356 357 357 1 3 5 6 6 7 7 8 9 6 2 355
273 278 284 291 298 305 312 318 322 326 329 333 335 337 340 343 346 350 353 356 359 2 5 7 8 8 9 6 359 356 352 352 354 355 355 356 357 358 357 357 355 352 348
270 275 280 286 292 299 306 312 318 322 326 330 333 336 338 341 345 348 350 353 357 360 2 8 11 13 13 11 6 360 355 344 343 344 346 347 348 349 349 349 348 347 346
268 272 276 282 288 294 301 308 311 317 321 324 328 331 335 337 341 345 349 352 356 359 4 8 11 14 14 13 8 5 1 358 345 335 335 337 339 341 343 342 343 344 344
265 269 274 277 283 289 295 302 310 315 320 323 325 329 332 334 339 344 348 351 356 360 4 8 10 12 14 14 11 9 4 2 354 346 332 328 331 333 336 339 341 341 342
262 266 270 275 279 284 290 296 303 310 317 323 324 328 332 335 338 343 347 350 356 0 3 6 9 11 12 12 11 8 5 2 1 353 345 331 325 327 329 332 336 339 341
260 263 266 272 275 280 285 290 296 303 311 317 323 326 330 333 336 341 345 349 354 358 2 4 7 9 10 10 10 8 4 2 359 359 354 345 332 323 324 326 330 334 338
258 260 263 268 272 276 280 285 290 296 303 311 316 320 326 332 333 338 342 347 352 357 0 3 5 8 10 10 10 9 6 3 1 359 357 353 344 332 321 322 324 329 334
256 257 259 264 267 271 275 280 284 289 294 302 309 315 319 324 330 333 338 343 348 353 358 1 4 7 9 11 11 10 9 6 3 0 358 356 352 344 331 321 321 324 329
252 254 256 260 264 267 271 275 279 283 287 292 300 310 311 316 321 327 332 336 341 347 352 357 1 5 7 9 10 10 10 8 6 4 2 359 357 352 344 329 321 323 327
249 251 253 257 260 263 266 270 274 277 280 283 287 297 306 308 312 317 324 329 335 340 346 351 355 360 4 7 8 10 9 8 8 7 5 5 3 1 357 348 329 320 325
246 247 250 254 257 260 262 266 269 271 273 276 279 285 296 301 302 306 314 321 327 331 337 343 349 353 358 2 5 7 8 7 7 7 8 9 10 9 8 5 358 333 321
243 244 246 250 253 257 259 262 264 266 267 269 272 277 284 294 293 296 302 312 318 322 327 334 341 346 350 355 359 2 4 5 6 7 8 10 12 14 15 14 14 8 354
240 241 244 247 251 253 256 258 260 261 262 264 267 270 273 280 286 286 291 299 307 313 318 324 331 337 342 347 353 356 360 3 5 6 8 11 13 16 18 20 20 19 15